Overview Statistics Trail Chart Weather Telemetry Raw packets
 

This is the latest recevied weather packets stored in our database for station/object N6AMQ-1. If no packets are shown the sender has not sent any weather packets the latest 10 day(s).

<< 4 5 6 7 8 9 10 >>
Time Temp. Humidity Pressure Rain* Wind** Luminosity Snow
1788633250 21.67° C 62% 1014.9 hPa 0 mm - - -
1788632641 21.11° C 62% 1014.9 hPa 0 mm - - -
1788632103 21.11° C 62% 1014.9 hPa 0 mm - - -
1788631741 21.11° C 62% 1014.9 hPa 0 mm - - -
1788631141 20.56° C 62% 1014.9 hPa 0 mm - - -
1788629705 20° C 65% 1014.9 hPa 0 mm - - -
1788628741 18.89° C 66% 1014.9 hPa 0 mm - - -
1788628503 18.89° C 67% 1014.9 hPa 0 mm - - -
1788627841 18.33° C 68% 1014.9 hPa 0 mm - - -
1788627303 18.33° C 69% 1014.9 hPa 0 mm - - -
1788627241 18.33° C 69% 1014.9 hPa 0 mm - - -
1788625141 17.22° C 74% 1014.9 hPa 0 mm - - -
1788624903 17.22° C 76% 1014.9 hPa 0 mm - - -
1788623703 16.11° C 80% 1014.9 hPa 0 mm - - -
1788623641 16.11° C 81% 1014.9 hPa 0 mm - - -
1788623041 15.56° C 83% 1014.9 hPa 0 mm - - -
1788622503 14.44° C 84% 1014.9 hPa 0 mm - - -
1788622441 14.44° C 84% 1014.9 hPa 0 mm - - -
1788621541 12.78° C 88% 1014.9 hPa 0 mm - - -
1788621303 12.22° C 89% 1014.9 hPa 0 mm - - -
1788620341 11.11° C 84% 1014.9 hPa 0 mm - - -
1788620103 11.11° C 84% 1014.9 hPa 0 mm - - -
1788620041 11.11° C 84% 1014.9 hPa 0 mm - - -
1788619741 11.11° C 84% 1014.9 hPa 0 mm - - -
1788619141 11.11° C 84% 1014.9 hPa 0 mm - - -

* Rain latest hour (hover to see other rain measurements)
** Current wind speed in m/s (hover to see current wind gust speed)